Hourly Data Report for October 06, 2017

All times are specified in Local Standard Time (LST). Add 1 hour to adjust for Daylight Saving Time where and when it is observed.

FREDERICTON
NEW BRUNSWICK

45°52'08.000" N
66°32'14.000" W
20.70 m
8101505
71700
YFC

Download Data

Hourly Data (October 2017)
Hourly Data Report for October 6, 2017
Temp Definition
°C
Dew Point Temp Definition
°C
Rel Hum Definition
%
Wind Dir Definition
10's deg

Wind Spd Definition
km/h
Visibility Definition
km
Stn Press Definition
kPa
Hmdx Definition


Wind Chill Definition


Weather Definition


TIME
00:00 Legend Double Dagger 13.0 7.3 68 17 8 16.1 101.03     LegendNANA
01:00 Legend Double Dagger 11.2 7.2 76 21 9 16.1 101.05     LegendNANA
02:00 Legend Double Dagger 11.4 6.8 73 24 8 16.1 101.07     LegendNANA
03:00 Legend Double Dagger 13.8 6.2 60 27 9 16.1 101.08     LegendNANA
04:00 Legend Double Dagger 13.5 6.4 62 29 9 16.1 101.14     LegendNANA
05:00 Legend Double Dagger 9.8 6.0 77 24 8 16.1 101.20     LegendNANA
06:00 Legend Double Dagger 10.4 6.0 74 26 5 16.1 101.27     LegendNANA
07:00 Legend Double Dagger 7.8 5.8 87 24 9 16.1 101.32     LegendNANA
08:00 Legend Double Dagger 11.5 6.7 72 31 5 16.1 101.39     LegendNANA
09:00 Legend Double Dagger 14.7 7.0 60 28 8 16.1 101.41     LegendNANA
10:00 Legend Double Dagger 16.4 5.8 49 32 13 16.1 101.38     LegendNANA
11:00 Legend Double Dagger 17.0 5.2 46 26 15 16.1 101.35     LegendNANA
12:00 Legend Double Dagger 18.7 5.2 41 27 15 16.1 101.31     LegendNANA
13:00 Legend Double Dagger 18.1 4.7 41 28 15 16.1 101.27     LegendNANA
14:00 Legend Double Dagger 18.1 5.0 42 30 11 16.1 101.24     LegendNANA
15:00 Legend Double Dagger 17.3 5.7 46 28 13 16.1 101.25     LegendNANA
16:00 Legend Double Dagger 12.6 9.9 83 24 15 16.1 101.30     Rain
17:00 Legend Double Dagger 13.0 10.9 87 20 13 16.1 101.28     LegendNANA
18:00 Legend Double Dagger 11.3 10.4 94 20 8 16.1 101.36     LegendNANA
19:00 Legend Double Dagger 10.4 10.0 97 LegendMM 4 16.1 101.41     LegendNANA
20:00 Legend Double Dagger 8.4 8.1 98 19 4 2.4 101.44     Fog
21:00 Legend Double Dagger 7.7 7.4 98 19 5 2.0 101.52     Fog
22:00 Legend Double Dagger 7.4 7.3 99 LegendMM 4 12.9 101.62     LegendNANA
23:00 Legend Double Dagger 6.1 6.0 99 19 4 3.6 101.68     Fog

Notes on Data Quality.

Legend

  • E = Estimated
  • M = Missing
  • NA = Not Available
  • ‡ = Partner data that is not subject to review by the National Climate Archives
Date modified: